Le nostre stazioni meteo in Italia

Pubblicità
Il mio iltempo24.it
S. Giovanni Teatino, Italia (16231): Temperatura & dewpoint: 13.05.2019 21:00:00 - 19.05.2019 21:00:00 (CEST)S. Giovanni Teatino, Italia (16231): velocità del vento: 13.05.2019 21:00:00 - 19.05.2019 21:00:00 (CEST)S. Giovanni Teatino, Italia (16231): direzione del vento: 13.05.2019 21:00:00 - 19.05.2019 21:00:00 (CEST)S. Giovanni Teatino, Italia (16231): reduced air pressure: 13.05.2019 21:00:00 - 19.05.2019 21:00:00 (CEST)S. Giovanni Teatino, Italia (16231): precipitazioni: 13.05.2019 21:00:00 - 19.05.2019 21:00:00 (CEST)
Data & Tempo tt [°C] td [°C] ff [km/h] ff [kn] dd ppp [hPa] rr [mm]
19.05.2019 21:00:00 - - - - - - -
19.05.2019 20:00:00 15,5 14,1 15 8 E 1004,6 -
19.05.2019 19:00:00 17,0 14,8 4 2 NNE 1004,0 -
19.05.2019 18:00:00 17,4 14,8 4 2 NO 1004,1 -
19.05.2019 17:00:00 17,7 14,7 11 6 NO 1003,7 -
19.05.2019 16:00:00 17,5 16,5 5 3 NNE 1003,3 -
19.05.2019 15:00:00 16,4 15,4 4 2 NNE 1003,5 -
19.05.2019 14:00:00 16,6 15,6 8 4 NE 1003,4 -
19.05.2019 13:00:00 16,5 14,6 4 2 NNO 1003,1 -
19.05.2019 12:00:00 19,3 15,7 5 3 N 1003,0 -
19.05.2019 11:00:00 18,5 16,0 4 2 OSO 1003,0 -
19.05.2019 10:00:00 17,5 16,0 13 7 O 1003,1 -
19.05.2019 09:00:00 15,7 15,2 8 4 OSO 1003,7 -
19.05.2019 08:00:00 14,8 14,7 0 0 N 1003,9 -
19.05.2019 07:00:00 13,9 13,8 2 1 SSO 1004,2 -
19.05.2019 06:00:00 13,5 13,4 2 1 NE 1003,8 -
19.05.2019 05:00:00 13,4 13,0 2 1 SO 1004,1 -
19.05.2019 04:00:00 13,9 13,5 9 5 OSO 1004,0 -
19.05.2019 03:00:00 14,3 13,6 4 2 ONO 1004,5 -
19.05.2019 02:00:00 14,5 13,7 5 3 NO 1005,0 -
19.05.2019 01:00:00 15,1 11,5 4 2 OSO 1005,5 -
19.05.2019 00:00:00 15,4 10,7 4 2 ONO 1005,2 -
18.05.2019 23:00:00 16,3 11,0 4 2 SO 1005,1 -
18.05.2019 22:00:00 16,2 13,0 4 2 OSO 1005,4 -
18.05.2019 21:00:00 17,1 13,7 4 2 SE 1004,8 -
18.05.2019 20:00:00 16,7 15,3 5 3 ENE 1004,4 0,0
18.05.2019 19:00:00 18,2 14,6 11 6 NE 1004,0 -
18.05.2019 18:00:00 18,6 12,5 13 7 E 1003,8 -
18.05.2019 17:00:00 20,1 11,8 16 9 ESE 1003,2 -
18.05.2019 16:00:00 21,6 12,9 22 12 E 1002,6 -
18.05.2019 15:00:00 21,3 12,9 39 21 E 1002,7 -
18.05.2019 14:00:00 20,2 13,1 31 17 ESE 1003,5 -
18.05.2019 13:00:00 19,0 12,9 28 15 ESE 1004,0 -
18.05.2019 12:00:00 19,0 13,1 26 14 ESE 1004,0 -
18.05.2019 11:00:00 17,4 16,5 18 10 E 1004,1 -
18.05.2019 10:00:00 14,2 14,1 2 1 O 1004,6 -
18.05.2019 09:00:00 13,0 12,9 4 2 E 1004,6 -
18.05.2019 08:00:00 12,6 12,6 2 1 O 1004,8 -
18.05.2019 07:00:00 11,8 11,8 2 1 ESE 1005,1 -
18.05.2019 06:00:00 11,7 11,7 5 3 ESE 1005,4 -
18.05.2019 05:00:00 12,0 12,0 8 4 S 1005,8 -
18.05.2019 04:00:00 - - - - - - -
18.05.2019 03:00:00 12,5 12,5 8 4 SO 1007,0 -
18.05.2019 02:00:00 13,0 12,8 4 2 O 1006,8 -
18.05.2019 01:00:00 13,6 13,2 2 1 ENE 1007,4 -
18.05.2019 00:00:00 14,0 13,6 4 2 N 1008,1 -
17.05.2019 23:00:00 13,8 13,3 9 5 ENE 1008,5 -
17.05.2019 22:00:00 14,3 13,5 4 2 NE 1008,7 -
17.05.2019 21:00:00 14,1 13,1 11 6 ENE 1008,5 -
17.05.2019 20:00:00 14,3 12,8 22 12 ENE 1008,3 -
17.05.2019 19:00:00 15,2 13,3 18 10 ENE 1008,0 -
17.05.2019 18:00:00 15,7 13,8 29 16 E 1008,3 -
17.05.2019 17:00:00 16,4 14,2 28 15 ENE 1008,4 -
17.05.2019 16:00:00 17,0 14,0 24 13 ENE 1008,5 -
17.05.2019 15:00:00 17,2 14,0 13 7 ENE 1008,9 -
17.05.2019 14:00:00 17,4 14,0 22 12 ENE 1009,3 -
17.05.2019 13:00:00 17,4 13,0 21 11 ENE 1009,6 -
17.05.2019 12:00:00 17,4 14,6 18 10 ENE 1009,9 -
17.05.2019 11:00:00 16,7 13,7 11 6 ENE 1010,2 -
17.05.2019 10:00:00 16,0 13,6 13 7 E 1010,5 -
17.05.2019 09:00:00 14,8 12,6 8 4 E 1010,7 -
17.05.2019 08:00:00 13,0 12,2 5 3 E 1010,8 -
17.05.2019 07:00:00 11,2 10,4 2 1 SO 1010,6 -
17.05.2019 06:00:00 10,4 9,5 2 1 NNE 1010,3 -
17.05.2019 05:00:00 10,6 9,8 4 2 OSO 1010,4 -
17.05.2019 04:00:00 10,8 9,9 2 1 SSO 1010,6 -
17.05.2019 03:00:00 11,0 9,9 5 3 ESE 1010,8 -
17.05.2019 02:00:00 11,2 10,3 4 2 SSE 1011,3 -
17.05.2019 01:00:00 11,1 10,0 8 4 SSE 1011,9 -
17.05.2019 00:00:00 11,4 10,1 4 2 S 1012,1 -
16.05.2019 23:00:00 11,8 10,5 2 1 N 1012,3 -
16.05.2019 22:00:00 11,8 10,2 2 1 NE 1012,5 -
16.05.2019 21:00:00 12,1 9,8 2 1 NNO 1012,2 -
16.05.2019 20:00:00 13,1 9,7 4 2 NNO 1011,7 -
16.05.2019 19:00:00 - - - - - - -
16.05.2019 18:00:00 14,6 10,0 4 2 NE 1011,1 -
16.05.2019 17:00:00 14,7 9,9 11 6 NE 1011,0 -
16.05.2019 16:00:00 15,4 9,9 15 8 NNE 1011,2 -
16.05.2019 15:00:00 16,3 11,0 4 2 N 1011,3 -
16.05.2019 14:00:00 16,6 10,4 9 5 NO 1011,5 -
16.05.2019 13:00:00 16,0 10,5 15 8 NNO 1012,0 -
16.05.2019 12:00:00 14,2 11,5 4 2 OSO 1012,4 -
16.05.2019 11:00:00 11,4 10,3 4 2 OSO 1012,8 -
16.05.2019 10:00:00 9,9 9,3 11 6 OSO 1013,0 -
16.05.2019 09:00:00 9,7 8,9 11 6 OSO 1012,7 -
16.05.2019 08:00:00 9,8 8,7 9 5 OSO 1012,5 -
16.05.2019 07:00:00 9,7 8,6 11 6 O 1012,0 -
16.05.2019 06:00:00 9,4 8,6 9 5 OSO 1011,9 -
16.05.2019 05:00:00 9,3 8,7 4 2 OSO 1011,8 -
16.05.2019 04:00:00 9,2 8,7 11 6 OSO 1011,8 -
16.05.2019 03:00:00 9,0 8,7 13 7 OSO 1012,2 -
16.05.2019 02:00:00 9,0 8,7 8 4 OSO 1012,8 -
16.05.2019 01:00:00 8,9 8,7 8 4 OSO 1013,2 -
16.05.2019 00:00:00 9,3 9,0 9 5 OSO 1013,4 -
15.05.2019 23:00:00 9,7 9,1 5 3 SO 1013,4 -
15.05.2019 22:00:00 10,8 8,5 4 2 ONO 1013,2 -
15.05.2019 21:00:00 10,8 8,3 4 2 NO 1012,7 -
15.05.2019 20:00:00 11,0 8,7 2 1 NNO 1012,5 -
15.05.2019 19:00:00 11,3 9,0 0 0 N 1012,2 -
15.05.2019 18:00:00 11,8 9,9 11 6 NNO 1012,2 -
15.05.2019 17:00:00 11,5 9,7 5 3 N 1012,2 -
15.05.2019 16:00:00 11,7 9,6 4 2 N 1012,3 -
15.05.2019 15:00:00 11,3 8,3 5 3 NNE 1012,5 -
15.05.2019 14:00:00 12,2 8,4 9 5 N 1012,5 -
15.05.2019 13:00:00 12,5 8,7 9 5 NO 1012,4 -
15.05.2019 12:00:00 12,1 9,3 11 6 NO 1012,4 -
15.05.2019 11:00:00 11,2 8,7 9 5 ONO 1012,5 -
15.05.2019 10:00:00 10,3 8,5 5 3 ONO 1012,6 -
15.05.2019 09:00:00 9,6 8,2 11 6 O 1012,6 -
15.05.2019 08:00:00 8,5 8,2 8 4 OSO 1012,7 -
15.05.2019 07:00:00 6,9 6,8 5 3 OSO 1012,8 -
15.05.2019 06:00:00 6,9 6,8 8 4 SO 1012,7 -
15.05.2019 05:00:00 7,0 6,7 5 3 SO 1012,6 -
15.05.2019 04:00:00 7,0 6,6 8 4 SO 1013,1 -
15.05.2019 03:00:00 7,4 6,2 4 2 SSO 1013,7 -
15.05.2019 02:00:00 8,0 5,9 4 2 OSO 1014,3 -
15.05.2019 01:00:00 8,9 5,2 11 6 OSO 1014,6 -
15.05.2019 00:00:00 9,1 4,9 11 6 O 1015,1 -
14.05.2019 23:00:00 9,6 5,1 16 9 O 1015,5 -
14.05.2019 22:00:00 9,7 7,6 13 7 O 1015,7 -
14.05.2019 21:00:00 9,6 8,7 16 9 O 1015,6 -
14.05.2019 20:00:00 10,4 8,6 15 8 O 1015,2 -
14.05.2019 19:00:00 11,1 9,0 16 9 O 1015,0 -
14.05.2019 18:00:00 11,2 9,8 26 14 O 1015,0 -
14.05.2019 17:00:00 11,6 9,8 21 11 O 1014,8 -
14.05.2019 16:00:00 12,1 11,2 15 8 O 1014,8 -
14.05.2019 15:00:00 10,1 9,8 16 9 O 1015,4 -
14.05.2019 14:00:00 10,7 10,1 13 7 O 1015,7 -
14.05.2019 13:00:00 10,8 10,0 16 9 O 1015,7 -
14.05.2019 12:00:00 10,3 10,0 16 9 O 1015,6 -
14.05.2019 11:00:00 9,4 9,4 15 8 ONO 1015,7 -
14.05.2019 10:00:00 9,3 9,3 22 12 O 1015,5 -
14.05.2019 09:00:00 9,3 9,3 9 5 O 1015,3 -
14.05.2019 08:00:00 9,0 9,0 11 6 ONO 1015,5 -
14.05.2019 07:00:00 9,3 9,3 15 8 ONO 1015,2 -
14.05.2019 06:00:00 9,5 9,5 13 7 NNO 1014,4 -
14.05.2019 05:00:00 9,7 9,7 16 9 NNO 1014,0 -
14.05.2019 04:00:00 10,1 10,1 8 4 NNO 1014,1 -
14.05.2019 03:00:00 10,6 10,6 8 4 ONO 1014,2 -
14.05.2019 02:00:00 10,7 10,7 15 8 O 1014,6 -
14.05.2019 01:00:00 10,4 10,4 15 8 O 1014,9 -
14.05.2019 00:00:00 10,6 10,6 22 12 O 1014,9 -
13.05.2019 23:00:00 11,1 11,1 8 4 O 1015,3 -
13.05.2019 22:00:00 11,7 11,5 15 8 O 1015,0 -
13.05.2019 21:00:00 12,1 12,1 15 8 ONO 1014,5 -

tt = Temperatura
td = dewpoint
ff = velocità del vento
dd = direzione del vento
ppp = reduced air pressure
rr = precipitazioni

Stazioni seguenti

WeatherPro
AMSI
MeteoEarth